DLH306 EDDF-LICC

Flight info

Callsign DLH306
Flight time N/A
Altitude 39000
Route ANEKI2L ANEKI Y163 NATOR DCT TRA DCT RIPUS DCT GERSA DCT SOSON DCT ODINA DCT TINKU DCT RIFFI DCT VAKOR DCT PELEN DCT UXUTA
Aircraft A321/M-SDE2E3FGILORWXYZ/H

Departure

Time 2026-04-19 04:34
Airport Frankfurt Main Airport (EDDF)

Arrival

Time N/A
Airport Catania-Fontanarossa Airport (LICC)
Time Latitude Longitude Altitude Speed Heading
2026-04-19 03:24 50.04535 8.56578 356 ft 0 kts 115°
2026-04-19 04:21 50.04539 8.56566 363 ft 4 kts 115°
2026-04-19 04:22 50.04550 8.56529 363 ft 4 kts 118°
2026-04-19 04:22 50.04564 8.56494 357 ft 4 kts 130°
2026-04-19 04:22 50.04582 8.56470 362 ft 4 kts 173°
2026-04-19 04:22 50.04591 8.56468 356 ft 2 kts 205°
2026-04-19 04:23 50.04574 8.56456 359 ft 0 kts 205°
2026-04-19 04:26 50.04566 8.56451 356 ft 4 kts 205°
2026-04-19 04:26 50.04542 8.56432 356 ft 6 kts 211°
2026-04-19 04:26 50.04511 8.56362 362 ft 10 kts 250°
2026-04-19 04:26 50.04483 8.56244 364 ft 13 kts 249°
2026-04-19 04:27 50.04448 8.56097 362 ft 13 kts 250°
2026-04-19 04:27 50.04393 8.56027 356 ft 11 kts 171°
2026-04-19 04:27 50.04316 8.56070 355 ft 12 kts 166°
2026-04-19 04:27 50.04252 8.55990 363 ft 15 kts 248°
2026-04-19 04:28 50.04206 8.55802 361 ft 22 kts 248°
2026-04-19 04:28 50.04148 8.55561 359 ft 24 kts 250°
2026-04-19 04:28 50.04091 8.55323 360 ft 24 kts 249°
2026-04-19 04:28 50.04034 8.55086 359 ft 23 kts 249°
2026-04-19 04:29 50.03978 8.54845 358 ft 24 kts 250°
2026-04-19 04:29 50.03916 8.54593 352 ft 25 kts 249°
2026-04-19 04:29 50.03853 8.54366 348 ft 18 kts 238°
2026-04-19 04:29 50.03791 8.54191 354 ft 19 kts 249°
2026-04-19 04:30 50.03744 8.53988 352 ft 21 kts 249°
2026-04-19 04:30 50.03692 8.53772 352 ft 22 kts 249°
2026-04-19 04:30 50.03634 8.53542 339 ft 24 kts 247°
2026-04-19 04:30 50.03575 8.53295 335 ft 25 kts 250°
2026-04-19 04:31 50.03521 8.53069 338 ft 21 kts 250°
2026-04-19 04:31 50.03479 8.52897 337 ft 18 kts 248°
2026-04-19 04:31 50.03440 8.52752 333 ft 12 kts 247°
2026-04-19 04:31 50.03434 8.52730 331 ft 1 kts 248°
2026-04-19 04:32 50.03429 8.52709 332 ft 3 kts 248°
2026-04-19 04:32 50.03416 8.52660 332 ft 6 kts 249°
2026-04-19 04:32 50.03395 8.52602 333 ft 6 kts 217°
2026-04-19 04:32 50.03366 8.52595 335 ft 0 kts 182°
2026-04-19 04:33 50.03364 8.52595 335 ft 1 kts 182°
2026-04-19 04:33 50.03253 8.52594 333 ft 50 kts 180°
2026-04-19 04:33 50.02618 8.52602 336 ft 129 kts 180°
2026-04-19 04:33 50.01515 8.52614 431 ft 178 kts 176°
2026-04-19 04:34 50.00307 8.52621 1319 ft 171 kts 181°
2026-04-19 04:34 49.99096 8.52632 1978 ft 182 kts 179°
2026-04-19 04:34 49.97758 8.52698 2351 ft 203 kts 177°
2026-04-19 04:34 49.96271 8.52820 2707 ft 224 kts 176°
2026-04-19 04:35 49.94689 8.52957 3492 ft 228 kts 177°
2026-04-19 04:35 49.93098 8.53093 4388 ft 230 kts 178°
2026-04-19 04:35 49.91490 8.53221 5311 ft 232 kts 179°
2026-04-19 04:35 49.89871 8.53340 6209 ft 234 kts 180°
2026-04-19 04:36 49.88240 8.53455 7067 ft 236 kts 180°
2026-04-19 04:36 49.86542 8.53570 7615 ft 255 kts 180°
2026-04-19 04:36 49.84696 8.53694 8122 ft 272 kts 180°
2026-04-19 04:36 49.82763 8.53823 8672 ft 288 kts 180°
2026-04-19 04:37 49.80713 8.53959 9276 ft 300 kts 180°
2026-04-19 04:37 49.78610 8.54099 10067 ft 304 kts 181°
2026-04-19 04:37 49.76460 8.53947 10577 ft 317 kts 187°
2026-04-19 04:37 49.74233 8.53673 11161 ft 325 kts 187°
2026-04-19 04:38 49.71964 8.53370 11866 ft 329 kts 188°
2026-04-19 04:38 49.69668 8.53051 12591 ft 334 kts 188°
2026-04-19 04:38 49.67343 8.52732 13332 ft 338 kts 188°
2026-04-19 04:38 49.64980 8.52411 14031 ft 342 kts 188°
2026-04-19 04:39 49.62595 8.52088 14673 ft 346 kts 188°
2026-04-19 04:39 49.60181 8.51765 15330 ft 350 kts 188°
2026-04-19 04:39 49.57736 8.51442 15984 ft 354 kts 188°
2026-04-19 04:39 49.55273 8.51114 16658 ft 358 kts 188°
2026-04-19 04:40 49.52775 8.50783 17323 ft 362 kts 188°
2026-04-19 04:40 49.50259 8.50435 17985 ft 365 kts 189°
2026-04-19 04:40 49.47731 8.49976 18591 ft 368 kts 191°
2026-04-19 04:40 49.45185 8.49430 19157 ft 371 kts 192°
2026-04-19 04:41 49.42628 8.48843 19740 ft 373 kts 192°
2026-04-19 04:41 49.40045 8.48245 20332 ft 376 kts 192°
2026-04-19 04:41 49.37445 8.47655 20910 ft 379 kts 192°
2026-04-19 04:41 49.34830 8.47073 21485 ft 382 kts 192°
2026-04-19 04:42 49.32191 8.46500 22032 ft 384 kts 192°
2026-04-19 04:42 49.29532 8.45932 22588 ft 387 kts 192°
2026-04-19 04:42 49.26860 8.45367 23129 ft 390 kts 192°
2026-04-19 04:42 49.24156 8.44793 23656 ft 393 kts 192°
2026-04-19 04:43 49.21437 8.44215 24105 ft 395 kts 192°
2026-04-19 04:43 49.18707 8.43633 24572 ft 397 kts 192°
2026-04-19 04:43 49.15962 8.43047 25035 ft 400 kts 192°
2026-04-19 04:43 49.13198 8.42456 25489 ft 402 kts 192°
2026-04-19 04:44 49.10421 8.41864 25958 ft 404 kts 192°
2026-04-19 04:44 49.07628 8.41270 26404 ft 406 kts 192°
2026-04-19 04:44 49.04823 8.40675 26853 ft 409 kts 192°
2026-04-19 04:44 49.01998 8.40077 27288 ft 411 kts 192°
2026-04-19 04:45 48.99162 8.39477 27728 ft 413 kts 192°
2026-04-19 04:45 48.96303 8.38873 28164 ft 416 kts 192°
2026-04-19 04:45 48.93432 8.38267 28587 ft 418 kts 192°
2026-04-19 04:45 48.90540 8.37655 29008 ft 421 kts 192°
2026-04-19 04:46 48.87633 8.37047 29436 ft 423 kts 190°
2026-04-19 04:46 48.84681 8.36688 29856 ft 427 kts 187°
2026-04-19 04:46 48.81706 8.36432 30247 ft 430 kts 186°
2026-04-19 04:46 48.78701 8.36231 30591 ft 433 kts 186°
2026-04-19 04:47 48.75685 8.36056 30929 ft 435 kts 186°
2026-04-19 04:47 48.72650 8.35883 31258 ft 438 kts 186°
2026-04-19 04:47 48.69597 8.35704 31562 ft 440 kts 186°
2026-04-19 04:47 48.66531 8.35512 31860 ft 442 kts 186°
2026-04-19 04:48 48.63462 8.35308 32203 ft 442 kts 186°
2026-04-19 04:48 48.60393 8.35097 32640 ft 440 kts 186°
2026-04-19 04:48 48.57333 8.34881 33001 ft 440 kts 186°
2026-04-19 04:48 48.54270 8.34663 33083 ft 440 kts 186°
2026-04-19 04:49 48.48154 8.34228 33095 ft 440 kts 186°
2026-04-19 04:49 48.42035 8.33818 33095 ft 441 kts 186°
2026-04-19 04:50 48.35910 8.33421 33098 ft 441 kts 186°
2026-04-19 04:50 48.29778 8.33006 33100 ft 441 kts 186°
2026-04-19 04:51 48.23822 8.31497 33106 ft 431 kts 208°
2026-04-19 04:51 48.21343 8.29037 33087 ft 426 kts 225°
2026-04-19 04:51 48.19520 8.25610 33091 ft 419 kts 243°
2026-04-19 04:52 48.18463 8.21538 32884 ft 421 kts 256°
2026-04-19 04:52 48.17680 8.17309 32486 ft 422 kts 254°
2026-04-19 04:52 48.16841 8.13088 32089 ft 423 kts 253°
2026-04-19 04:52 48.15999 8.08868 31824 ft 424 kts 253°
2026-04-19 04:53 48.15159 8.04642 31568 ft 423 kts 253°
2026-04-19 04:53 48.14321 8.00429 31310 ft 421 kts 254°
2026-04-19 04:53 48.13813 7.96129 30967 ft 420 kts 269°
2026-04-19 04:53 48.14120 7.91796 30598 ft 419 kts 279°
2026-04-19 04:54 48.14659 7.87519 30236 ft 417 kts 279°
2026-04-19 04:54 48.15215 7.83297 29817 ft 410 kts 282°
2026-04-19 04:54 48.16185 7.79338 29414 ft 404 kts 297°
2026-04-19 04:54 48.17840 7.75991 29142 ft 397 kts 314°
2026-04-19 04:55 48.20077 7.73639 28866 ft 392 kts 330°
2026-04-19 04:55 48.22650 7.72314 28586 ft 392 kts 346°
2026-04-19 04:55 48.25378 7.72161 28309 ft 396 kts
2026-04-19 04:55 48.28003 7.73262 28045 ft 401 kts 23°
2026-04-19 04:56 48.30422 7.75508 27772 ft 404 kts 32°
2026-04-19 04:56 48.32728 7.77898 27503 ft 403 kts 32°
2026-04-19 04:56 48.35034 7.80292 27248 ft 404 kts 32°
2026-04-19 04:56 48.37401 7.82741 26995 ft 422 kts 32°
2026-04-19 04:57 48.39812 7.85227 26746 ft 429 kts 32°
2026-04-19 04:57 48.42306 7.87800 26489 ft 430 kts 32°
2026-04-19 04:57 48.44740 7.90313 26236 ft 429 kts 32°
2026-04-19 04:57 48.47225 7.92882 25982 ft 427 kts 32°
2026-04-19 04:58 48.49636 7.95379 25743 ft 426 kts 32°
2026-04-19 04:58 48.52070 7.97904 25499 ft 424 kts 32°
2026-04-19 04:58 48.54497 8.00425 25251 ft 422 kts 32°
2026-04-19 04:58 48.56910 8.02939 25011 ft 420 kts 32°
2026-04-19 04:59 48.59309 8.05442 24733 ft 419 kts 32°
2026-04-19 04:59 48.61698 8.07936 24499 ft 417 kts 32°
2026-04-19 04:59 48.64081 8.10419 24246 ft 415 kts 32°
2026-04-19 04:59 48.66468 8.12910 23900 ft 425 kts 32°
2026-04-19 05:00 48.68930 8.15483 23657 ft 432 kts 32°
2026-04-19 05:00 48.71409 8.18076 23386 ft 433 kts 32°
2026-04-19 05:00 48.73881 8.20667 23105 ft 432 kts 32°
2026-04-19 05:00 48.76346 8.23256 22828 ft 430 kts 32°
2026-04-19 05:01 48.78875 8.25610 22565 ft 424 kts 22°
2026-04-19 05:01 48.80725 8.26727 22388 ft 422 kts 18°
2026-04-19 05:01 48.83471 8.28271 22120 ft 420 kts 17°
2026-04-19 05:01 48.86206 8.29813 21853 ft 419 kts 18°
2026-04-19 05:02 48.88901 8.31491 21596 ft 418 kts 20°
2026-04-19 05:02 48.91561 8.33237 21337 ft 416 kts 21°
2026-04-19 05:02 48.94210 8.35001 21082 ft 415 kts 21°
2026-04-19 05:02 48.96803 8.36891 20823 ft 415 kts 27°
2026-04-19 05:03 48.99282 8.39132 20578 ft 414 kts 28°
2026-04-19 05:03 49.01744 8.41403 20328 ft 412 kts 28°
2026-04-19 05:03 49.04264 8.43727 20069 ft 435 kts 28°
2026-04-19 05:03 49.06881 8.46134 19824 ft 443 kts 28°
2026-04-19 05:04 49.09531 8.48567 19582 ft 445 kts 28°
2026-04-19 05:04 49.12183 8.51003 19334 ft 446 kts 28°
2026-04-19 05:04 49.14814 8.53527 19101 ft 448 kts 32°
2026-04-19 05:04 49.17432 8.56096 18889 ft 446 kts 29°
2026-04-19 05:05 49.20072 8.58528 18654 ft 445 kts 29°
2026-04-19 05:05 49.22722 8.60964 18417 ft 443 kts 29°
2026-04-19 05:05 49.25369 8.63398 18173 ft 442 kts 28°
2026-04-19 05:05 49.27997 8.65817 17901 ft 440 kts 29°
2026-04-19 05:06 49.30615 8.68226 17640 ft 438 kts 29°
2026-04-19 05:06 49.33225 8.70627 17379 ft 437 kts 29°
2026-04-19 05:06 49.35818 8.73010 16827 ft 431 kts 29°
2026-04-19 05:06 49.38362 8.75351 16182 ft 421 kts 29°
2026-04-19 05:07 49.40846 8.77637 15556 ft 413 kts 29°
2026-04-19 05:07 49.43253 8.79850 14955 ft 406 kts 29°
2026-04-19 05:07 49.45662 8.82063 14357 ft 399 kts 29°
2026-04-19 05:07 49.48059 8.84264 13739 ft 393 kts 29°
2026-04-19 05:08 49.50387 8.86400 13055 ft 382 kts 29°
2026-04-19 05:08 49.54624 8.90274 11907 ft 340 kts 29°
2026-04-19 05:08 49.56649 8.92119 11497 ft 339 kts 29°
2026-04-19 05:09 49.58668 8.93952 11121 ft 334 kts 29°
2026-04-19 05:09 49.60667 8.95760 10745 ft 332 kts 29°
2026-04-19 05:09 49.62655 8.97551 10384 ft 329 kts 29°
2026-04-19 05:09 49.64629 8.99324 9884 ft 327 kts 29°
2026-04-19 05:10 49.66589 9.01081 9328 ft 325 kts 29°
2026-04-19 05:10 49.68539 9.02823 8776 ft 323 kts 29°
2026-04-19 05:10 49.70475 9.04550 8236 ft 320 kts 29°
2026-04-19 05:10 49.72398 9.06264 7698 ft 319 kts 29°
2026-04-19 05:11 49.74293 9.07951 7405 ft 310 kts 29°
2026-04-19 05:11 49.76135 9.09591 7163 ft 301 kts 29°
2026-04-19 05:11 49.77826 9.11441 6916 ft 298 kts 46°
2026-04-19 05:11 49.79115 9.13943 6675 ft 297 kts 53°
2026-04-19 05:12 49.80327 9.16527 6423 ft 296 kts 52°
2026-04-19 05:12 49.81799 9.18714 6167 ft 294 kts 32°
2026-04-19 05:12 49.83669 9.19884 5929 ft 290 kts
2026-04-19 05:12 49.85671 9.19918 5790 ft 285 kts 353°
2026-04-19 05:13 49.87611 9.19655 5561 ft 276 kts 354°
2026-04-19 05:13 49.89457 9.19409 5270 ft 256 kts 354°
2026-04-19 05:13 49.91185 9.19180 4955 ft 247 kts 354°
2026-04-19 05:13 49.92865 9.18957 4562 ft 236 kts 354°
2026-04-19 05:14 49.94463 9.18746 4183 ft 226 kts 354°
2026-04-19 05:14 49.95969 9.18547 3979 ft 209 kts 354°
2026-04-19 05:14 49.97413 9.18365 3979 ft 207 kts 354°
2026-04-19 05:14 49.98889 9.18184 3987 ft 225 kts 354°
2026-04-19 05:15 50.00482 9.17986 3973 ft 233 kts 354°
2026-04-19 05:15 50.02099 9.17781 3973 ft 234 kts 352°
2026-04-19 05:15 50.03604 9.16959 3980 ft 231 kts 323°
2026-04-19 05:15 50.04810 9.15330 3978 ft 230 kts 315°
2026-04-19 05:16 50.05952 9.13589 3973 ft 229 kts 314°
2026-04-19 05:16 50.07085 9.11836 3975 ft 229 kts 314°
2026-04-19 05:16 50.08214 9.10086 3981 ft 229 kts 314°
2026-04-19 05:16 50.09344 9.08332 3979 ft 229 kts 314°
2026-04-19 05:17 50.10474 9.06576 3983 ft 229 kts 314°
2026-04-19 05:17 50.11565 9.04782 3980 ft 228 kts 304°
2026-04-19 05:17 50.12184 9.02526 3986 ft 227 kts 286°
2026-04-19 05:17 50.12594 9.00151 3990 ft 227 kts 284°
2026-04-19 05:18 50.12923 8.97749 3973 ft 227 kts 274°
2026-04-19 05:18 50.12674 8.95330 3996 ft 228 kts 251°
2026-04-19 05:18 50.12127 8.93015 3996 ft 228 kts 250°
2026-04-19 05:18 50.11576 8.90688 3978 ft 228 kts 251°
2026-04-19 05:19 50.11032 8.88372 3987 ft 228 kts 251°
2026-04-19 05:19 50.10499 8.86107 3922 ft 216 kts 251°
2026-04-19 05:19 50.09994 8.83963 3701 ft 207 kts 251°
2026-04-19 05:19 50.09504 8.81882 3445 ft 202 kts 251°
2026-04-19 05:20 50.09025 8.79848 3180 ft 199 kts 251°
2026-04-19 05:20 50.08547 8.77819 2915 ft 199 kts 251°
2026-04-19 05:20 50.08076 8.75827 2661 ft 199 kts 252°
2026-04-19 05:20 50.07599 8.73806 2392 ft 199 kts 252°
2026-04-19 05:21 50.07128 8.71821 2134 ft 189 kts 252°
2026-04-19 05:21 50.06691 8.69979 1905 ft 169 kts 252°
2026-04-19 05:21 50.06310 8.68372 1671 ft 153 kts 252°
2026-04-19 05:21 50.05953 8.66866 1458 ft 145 kts 253°
2026-04-19 05:22 50.05612 8.65425 1287 ft 141 kts 252°
2026-04-19 05:22 50.05272 8.63992 1106 ft 140 kts 253°
2026-04-19 05:22 50.04938 8.62589 937 ft 138 kts 252°
2026-04-19 05:22 50.04630 8.61290 772 ft 138 kts 254°
2026-04-19 05:23 50.04297 8.59899 586 ft 135 kts 253°
2026-04-19 05:23 50.03974 8.58541 405 ft 134 kts 254°
2026-04-19 05:23 50.03680 8.57276 356 ft 108 kts 250°
2026-04-19 05:23 50.03449 8.56326 351 ft 81 kts 249°
2026-04-19 05:24 50.03285 8.55634 352 ft 60 kts 249°
2026-04-19 05:24 50.03180 8.55125 350 ft 35 kts 264°
2026-04-19 05:24 50.03195 8.54819 339 ft 26 kts 279°
2026-04-19 05:24 50.03221 8.54573 333 ft 22 kts 277°
2026-04-19 05:25 50.03221 8.54343 336 ft 22 kts 254°
2026-04-19 05:25 50.03168 8.54121 337 ft 23 kts 248°
2026-04-19 05:25 50.03114 8.53896 333 ft 23 kts 249°
2026-04-19 05:25 50.03062 8.53666 335 ft 23 kts 250°
2026-04-19 05:26 50.03002 8.53437 335 ft 21 kts 249°
2026-04-19 05:26 50.02955 8.53226 332 ft 19 kts 253°
2026-04-19 05:26 50.02949 8.53070 332 ft 15 kts 287°
2026-04-19 05:26 50.03021 8.52900 330 ft 23 kts 303°
2026-04-19 05:27 50.03114 8.52821 336 ft 16 kts 359°
2026-04-19 05:27 50.03227 8.52817 335 ft 17 kts 358°
2026-04-19 05:27 50.03317 8.52893 334 ft 17 kts 69°
2026-04-19 05:27 50.03356 8.53050 332 ft 13 kts 70°
2026-04-19 05:28 50.03387 8.53181 334 ft 13 kts 69°
2026-04-19 05:28 50.03434 8.53295 335 ft 12 kts 38°
2026-04-19 05:28 50.03509 8.53351 339 ft 12 kts 24°
2026-04-19 05:28 50.03589 8.53411 336 ft 13 kts 35°
2026-04-19 05:29 50.03635 8.53544 339 ft 15 kts 70°
2026-04-19 05:29 50.03665 8.53671 350 ft 6 kts 80°
2026-04-19 05:29 50.03644 8.53701 348 ft 5 kts 158°
2026-04-19 05:29 50.03611 8.53720 337 ft 5 kts 159°
2026-04-19 05:30 50.03598 8.53728 337 ft 0 kts 159°